Weather History for PATA - October, 2013

Change the Weather History Date:

Saturday, October 19, 2013

  Actual Average Record
Temperature  
Mean Temperature 38 °F -  
Max Temperature 43 °F 26 °F 43 °F (2013)
Min Temperature 35 °F 11 °F -15 °F (1983)
Degree Days  
Heating Degree Days 26    
Moisture  
Dew Point 32 °F    
Average Humidity 79    
Maximum Humidity 89    
Minimum Humidity 67    
Precipitation  
Precipitation 0.00 in - - ()
Sea Level Pressure  
Sea Level Pressure 29.39 in    
Wind  
Wind Speed 7 mph (NE)    
Max Wind Speed 12 mph    
Max Gust Speed -    
Visibility 10 miles    
Events      
Averages and records for this station are not official NWS values.
T = Trace of Precipitation, MM = Missing Value Source: NWS Daily Summary

Daily Weather History Graph

Daily Weather History Graph

Search for Another Location

Airport or City:

Trip Planner

Search our weather history database for the weather conditions in past years. The results will help you decide how hot, cold, wet, or windy it might be!

Date:

Astronomy

Oct. 19, 2013 Rise Set
Actual Time 9:16 AM AKDT 6:28 PM AKDT
Civil Twilight 8:24 AM AKDT 7:20 PM AKDT
Nautical Twilight 7:26 AM AKDT 8:17 PM AKDT
Astronomical Twilight 6:28 AM AKDT 9:15 PM AKDT
Moon 6:28 PM AKDT (10/19) 10:33 AM AKDT (10/19)
Length of Visible Light 10h 55m
Length of Day
9h 12m
Full, 99% of the Moon is Illuminated
Oct 19
Full
Oct 26
Last Quarter
Nov 3
New
Nov 9
First Quarter
Nov 17
Full

Hourly Weather History & Observations

Time (AKDT) Temp. Windchill Dew Point Humidity Pressure Visibility Wind Dir Wind Speed Gust Speed Precip Events Conditions
12:52 AM 41.0 °F 34.7 °F 33.1 °F 73% 29.48 in 10.0 mi NE 10.4 mph - N/A   Overcast
1:52 AM 37.0 °F 29.8 °F 33.1 °F 86% 29.48 in 10.0 mi NE 10.4 mph - N/A   Clear
2:52 AM 39.0 °F 34.0 °F 32.0 °F 76% 29.47 in 10.0 mi ENE 6.9 mph - N/A   Clear
3:52 AM 36.0 °F 29.6 °F 32.0 °F 86% 29.46 in 10.0 mi North 8.1 mph - N/A   Clear
4:52 AM 39.0 °F 31.8 °F 30.9 °F 73% 29.42 in 10.0 mi ENE 11.5 mph - N/A   Clear
5:52 AM 37.0 °F 31.0 °F 30.9 °F 79% 29.39 in 10.0 mi NNE 8.1 mph - N/A   Clear
6:52 AM 39.0 °F - 30.9 °F 73% 29.39 in 10.0 mi Calm Calm - N/A   Scattered Clouds
7:52 AM 37.0 °F 33.3 °F 30.9 °F 79% 29.36 in 10.0 mi ESE 4.6 mph - N/A   Scattered Clouds
8:52 AM 37.0 °F 32.4 °F 30.9 °F 79% 29.34 in 10.0 mi East 5.8 mph - N/A   Overcast
9:52 AM 37.0 °F 33.3 °F 30.9 °F 79% 29.33 in 10.0 mi Variable 4.6 mph - N/A   Overcast
10:52 AM 37.0 °F 33.3 °F 30.9 °F 79% 29.32 in 10.0 mi ENE 4.6 mph - N/A   Overcast
11:52 AM 37.9 °F 32.7 °F 32.0 °F 79% 29.31 in 10.0 mi NE 6.9 mph - N/A   Overcast
12:52 PM 41.0 °F 38.0 °F 32.0 °F 70% 29.29 in 10.0 mi Variable 4.6 mph - N/A   Overcast
1:52 PM 42.1 °F 40.2 °F 32.0 °F 67% 29.30 in 10.0 mi Variable 3.5 mph - N/A   Overcast
2:52 PM 41.0 °F 38.0 °F 33.1 °F 73% 29.31 in 10.0 mi NE 4.6 mph - N/A   Overcast
3:52 PM 42.1 °F 39.2 °F 34.0 °F 73% 29.33 in 10.0 mi ENE 4.6 mph - N/A   Mostly Cloudy
4:52 PM 41.0 °F 38.0 °F 34.0 °F 76% 29.35 in 10.0 mi NE 4.6 mph - N/A   Mostly Cloudy
5:52 PM 41.0 °F 38.0 °F 34.0 °F 76% 29.37 in 10.0 mi ENE 4.6 mph - N/A   Mostly Cloudy
6:52 PM 37.9 °F 35.5 °F 33.1 °F 83% 29.39 in 10.0 mi NE 3.5 mph - N/A   Mostly Cloudy
7:52 PM 37.9 °F 35.5 °F 33.1 °F 83% 29.41 in 10.0 mi NE 3.5 mph - N/A   Scattered Clouds
8:52 PM 37.0 °F 34.5 °F 33.1 °F 86% 29.44 in 10.0 mi NE 3.5 mph - N/A   Overcast
9:52 PM 35.1 °F 32.2 °F 32.0 °F 89% 29.46 in 10.0 mi NNE 3.5 mph - N/A   Mostly Cloudy
10:52 PM 35.1 °F 31.0 °F 32.0 °F 89% 29.49 in 10.0 mi NE 4.6 mph - N/A   Clear
11:52 PM 36.0 °F 32.1 °F 32.0 °F 86% 29.51 in 10.0 mi ENE 4.6 mph - N/A   Mostly Cloudy